Location: East Grimstead
(51.0333°N, 1.6667°W)
Time: 07:30:21
(UTC+00:00)

Daily predictions for brighter satellites

Satellite Brightness Start Highest point End
(mag) Time Altitude Azimuth Time Altitude Azimuth Time Altitude Azimuth
CZ-4B R/B 3.3 17:12:02 10° SSE 17:17:38 87° ENE 17:23:11 10° NNW
Cosmos 1655 Rocket 4.4 17:13:37 10° NNW 17:20:02 75° W 17:26:24 10° S
Okean-O 3.8 17:16:55 10° ESE 17:20:21 22° ENE 17:23:48 10° N
Cosmos 2098 Rocket 3.8 17:17:28 10° NNW 17:20:26 39° W 17:23:09 10° SSW
Cosmos 1656 Rocket 4.3 17:15:40 10° SW 17:21:12 61° NW 17:26:50 10° NNE
Cosmos 1809 Rocket 4.5 17:15:58 10° N 17:22:10 81° E 17:28:16 10° SSE
AQUARIUS 4.1 17:17:42 10° SSE 17:22:11 76° ENE 17:26:42 10° NNW
NOSS 2-2 (E) 4.5 17:17:05 10° NW 17:22:24 77° NE 17:29:50 10° SE
Cosmos 1400 Rocket 4.1 17:22:07 10° SE 17:25:11 21° E 17:28:15 10° NE
Meteor 1-16 Rocket 4.3 17:20:21 10° SSW 17:25:59 86° WNW 17:31:28 10° NNE
Cosmos 1908 3.3 17:23:05 10° S 17:26:57 88° WNW 17:30:51 10° N
Cosmos 2227 Rocket 2.6 17:21:35 10° NNW 17:26:59 43° NE 17:32:22 10° ESE
Cosmos 2266 Rocket 4.2 17:21:23 10° NNW 17:27:38 82° W 17:33:57 10° S
Cosmos 2058 4.4 17:25:20 10° NNE 17:28:02 17° ENE 17:30:44 10° ESE
H-2A R/B 3.4 17:24:30 10° ESE 17:28:26 21° NE 17:32:22 10° N
Cosmos 1892 4.0 17:26:33 10° NNE 17:29:32 21° ENE 17:32:31 10° ESE
CZ-4 R/B 2.5 17:27:37 10° ESE 17:30:34 21° ENE 17:33:32 10° NNE
GEOS 3 Rocket 4.4 17:25:50 10° E 17:30:44 38° NNE 17:35:42 10° NW
Cosmos 2263 Rocket 3.9 17:28:17 10° N 17:31:45 16° NNE 17:35:12 10° ENE
Cosmos 1408 4.2 17:31:27 10° NNE 17:33:39 15° ENE 17:35:53 10° ESE
Cosmos 1356 Rocket 4.1 17:29:27 10° SSW 17:33:41 61° WNW 17:37:59 10° N
BREEZE-M DEB (TANK) 3.9 17:30:14 10° WSW 17:33:42 86° SSE 17:46:14 10° ENE
BREEZE-M R/B 4.4 17:21:45 10° WSW 17:34:03 72° S 17:37:09 10° E
CZ-4C R/B 4.1 17:31:32 10° N 17:34:40 45° WNW 17:37:51 10° SW
NOSS 3-4 (A) 4.5 17:31:51 10° NW 17:37:50 35° NNE 17:44:12 11° E
CZ-4C R/B 3.8 17:32:49 10° NW 17:38:09 29° N 17:44:21 10° ENE
NOAA 12 4.4 17:34:13 10° S 17:39:30 77° WSW 17:44:52 10° NNW
NOSS 2-2 (D) 4.4 17:34:44 10° NW 17:39:59 82° NE 17:47:20 10° SE
Cosmos 1953 Rocket 3.5 17:36:13 10° N 17:40:37 64° ENE 17:45:02 10° SSE
Cosmos 1300 2.9 17:39:44 10° S 17:43:24 47° E 17:47:05 10° NNE
SL-4 R/B 1.7 17:42:26 10° W 17:45:57 80° N 17:49:04 14° E
Cosmos 1697 Rocket 4.1 17:43:22 10° SE 17:46:45 17° E 17:49:37 12° ENE
Cosmos 2058 Rocket 3.7 17:42:41 10° SSE 17:46:47 36° E 17:50:56 10° NNE
Cosmos 1331 Rocket 3.9 17:41:57 10° SSW 17:47:04 68° ESE 17:52:12 10° NNE
Cosmos 1346 Rocket 3.8 17:45:05 10° N 17:48:27 25° ENE 17:51:49 10° SE
IRS-1C Rocket 4.1 17:44:06 10° SSE 17:49:17 62° ENE 17:54:31 10° N
CZ-2D R/B 3.7 17:45:48 10° SE 17:49:21 39° ENE 17:52:56 10° N
USA 305 3.0 17:45:26 10° WNW 17:49:45 71° NNE 17:53:27 14° E
SeaSat 1 3.6 17:46:28 11° E 17:50:10 26° NE 17:54:13 10° NNW
Cosmos 1825 3.8 17:48:13 10° NNE 17:50:39 16° ENE 17:51:38 15° E
Cosmos 1953 4.4 17:47:27 10° SW 17:50:58 30° WNW 17:54:30 10° N
Cosmos 44 3.3 17:49:56 10° SSW 17:54:20 54° ESE 17:59:03 10° NE
USA 306 2.9 17:51:51 10° WNW 17:56:10 74° NNE 17:59:35 16° E
Cosmos 1315 Rocket 4.3 17:53:59 10° SE 17:56:19 16° E 17:56:19 16° E
NOAA 11 4.3 17:51:19 10° SSE 17:56:47 85° WSW 18:02:15 10° NNW
USA 215 3.6 17:51:39 13° ENE 17:57:25 54° N 18:03:46 10° WNW
SAR-Lupe-4 3.7 17:55:08 10° NNE 17:58:40 52° ESE 18:02:10 10° S
ERS-2 2.1 17:55:08 10° NNE 17:58:48 86° WNW 18:02:27 10° SSW
BREEZE-M R/B 3.3 17:56:22 10° W 17:59:52 78° S 18:05:18 15° E
ATLAS 2AS CENTAUR R/B 3.6 17:52:47 10° NW 17:59:57 38° NNE 18:05:16 16° E
Cosmos 968 Rocket 3.5 17:57:28 10° NNW 18:02:39 58° ENE 18:07:45 10° SE
Cosmos 1340 2.6 17:59:47 10° N 18:03:34 65° ENE 18:07:18 10° SSE
Cosmos 2297 Rocket 2.2 18:01:20 10° NNW 18:07:03 87° ENE 18:12:44 10° SSE
COSMO-SKYMED 1 2.7 18:03:10 10° NNE 18:07:26 53° E 18:11:42 10° S
Cosmos 2369 Rocket 4.2 18:02:59 10° W 18:07:34 24° NW 18:12:10 10° NNE
MOS 1 Rocket 4.4 18:04:14 10° NE 18:07:58 23° E 18:11:51 10° SE
Cosmos 1076 Rocket 4.3 18:04:48 10° N 18:08:33 29° ENE 18:11:35 14° SE
H-2A R/B 3.7 18:05:19 10° N 18:09:07 34° WNW 18:12:51 10° SW
Cosmos 1980 Rocket 4.1 18:06:58 10° SE 18:07:19 11° ESE 18:07:19 11° ESE
In-Cosmos 22 Rocket 4.0 18:04:19 10° N 18:09:41 71° ENE 18:15:06 10° SSE
Aureole 3 Rocket 3.3 18:08:16 10° S 18:12:18 62° E 18:17:58 10° NNE
Cosmos 1110 Rocket 4.3 18:10:33 10° SSW 18:15:47 69° WNW 18:21:01 10° NNE
S3M 4.3 18:10:47 10° SSE 18:16:25 41° E 18:22:09 10° NNE
SAR-Lupe-1 3.9 18:12:57 10° NNE 18:16:35 79° ESE 18:20:10 10° SSW
CSL-04 Debris 4.4 18:11:41 10° SE 18:16:51 46° ENE 18:22:03 10° N
Cosmos 1302 Rocket 4.0 18:12:51 10° S 18:18:04 66° ESE 18:23:20 10° NNE
SL-08 ROCKET BODY 4.4 18:13:16 10° N 18:19:21 64° ENE 18:25:28 10° SSE
Lacrosse 5 2.6 18:15:38 10° WNW 18:20:28 42° N 18:23:30 21° ENE
FALCON 9 DEB 3.2 18:17:23 10° WNW 18:20:48 65° N 18:22:07 33° E
FALCON 9 DEB 3.3 18:19:30 10° SW 18:22:38 49° SSE 18:23:30 37° ESE
ERBS 3.7 18:19:52 10° WNW 18:22:50 28° N 18:24:02 22° NE
Okean O Rocket 4.0 18:19:27 10° SSW 18:23:10 27° W 18:26:53 10° NW
Cosmos 1486 Rocket 4.0 18:17:48 10° NNW 18:23:11 84° ENE 18:28:31 10° SSE
Cosmos 292 Rocket 3.9 18:18:25 10° SSW 18:23:13 79° WNW 18:28:06 10° NNE
YAOGAN 1 2.5 18:20:09 10° SSE 18:24:25 62° ENE 18:28:43 10° N
Aureole 3 2.5 18:22:51 10° S 18:25:57 87° E 18:28:56 10° N
FALCON 9 DEB 3.1 18:23:40 10° SW 18:26:48 54° SSE 18:27:30 42° ESE
ADEOS Rocket 4.5 18:22:55 10° N 18:28:42 41° WNW 18:35:04 10° SW
Cosmos 1812 Rocket 4.3 18:27:21 10° SSE 18:35:45 - NNE 18:30:37 30° ESE
Cosmos 1455 2.9 18:28:27 10° SSE 18:31:13 32° ESE 18:31:13 32° ESE
Meteor 2-8 Rocket 4.4 18:26:04 10° S 18:32:11 83° E 18:38:22 10° NNE
Cosmos 1503 Rocket 4.0 18:27:48 10° NNW 18:32:59 62° ENE 18:37:11 16° SE
CZ-2C R/B 3.2 18:28:48 10° SSE 18:34:35 76° ENE 18:40:12 10° NNW
Cosmos 1726 Rocket 4.4 18:31:11 10° SSW 18:35:26 52° WNW 18:39:45 10° N
Cosmos 2219 3.9 18:31:41 10° NW 18:37:20 57° WSW 18:42:56 10° S
CZ-4B R/B 3.3 18:34:27 10° N 18:37:20 30° WNW 18:40:09 10° SW
FALCON 9 DEB 2.9 18:35:40 10° SW 18:38:53 61° SSE 18:39:09 58° SE
USA 307 2.9 18:34:51 10° WNW 18:39:09 79° SSW 18:40:52 35° SE
Cosmos 1939 Rocket 4.0 18:37:30 10° S 18:41:17 43° W 18:45:03 10° NNW
Geosat FO 4.5 18:41:07 41° SE 18:42:13 68° ENE 18:45:42 10° NNW
USA 308 2.9 18:39:41 10° WNW 18:43:59 75° SSW 18:45:31 38° SE
Cosmos 1354 Rocket 3.9 18:39:19 10° NNW 18:44:34 67° ENE 18:47:53 23° SE
Meteor 2-10 Rocket 3.4 18:40:04 10° S 18:45:17 63° E 18:50:21 10° NNE
Cosmos 1553 Rocket 4.0 18:39:30 10° S 18:45:51 87° E 18:52:10 10° N
Cosmos 2082 3.6 18:40:21 10° NNW 18:46:08 84° ENE 18:50:45 16° SSE
Helios 1A Rocket 3.7 18:44:41 10° S 18:48:43 53° W 18:52:45 10° NNW
FALCON 9 DEB 2.9 18:47:14 10° WSW 18:50:17 71° S 18:50:17 71° S
Cosmos 1689 Rocket 3.3 18:48:57 10° N 18:51:42 42° WNW 18:54:28 10° SW
ATLAS 5 CENTAUR R/B 3.7 18:48:54 10° NW 18:52:28 21° N 18:55:00 15° NNE
Meteor 2-15 Rocket 4.3 18:47:39 10° S 18:53:45 66° E 18:59:50 10° NNE
SKYMED 2 4.3 18:51:16 10° N 18:55:32 54° WNW 18:59:46 10° SSW
Okean-O 3.4 18:52:11 10° S 18:56:32 53° W 19:00:53 10° NNW
Cosmos 1992 Rocket 3.9 18:51:58 10° S 18:57:05 60° ESE 18:59:48 27° NE
Cosmos 2151 3.8 18:53:15 10° N 18:56:04 33° NNE 18:56:04 33° NNE
ARGOS 3.1 18:54:41 20° SSE 18:58:26 67° ENE 19:03:52 10° N
SL-08 RB Rocket 3.9 19:00:38 47° NE 19:00:38 47° NE 19:04:36 10° N
Cosmos 1400 Rocket 4.0 18:57:27 10° SW 19:01:23 43° WNW 19:05:18 10° N
Cosmos 2369 3.8 18:56:29 10° S 19:01:58 50° ESE 19:03:11 43° ENE
Cosmos 1656 3.7 18:59:27 10° SSW 19:05:02 82° WNW 19:10:04 14° NNE
Cosmos 1844 Rocket 4.4 19:01:28 10° N 19:05:11 17° NNE 19:05:18 17° NNE
Cosmos 2058 3.4 19:01:19 10° NNW 19:05:21 58° W 19:09:23 10° S
CZ-4 R/B 2.5 19:01:41 10° S 19:05:23 42° W 19:09:05 10° NNW
Cosmos 1892 4.1 19:01:45 10° NNW 19:05:24 40° W 19:09:03 10° SSW
Meteor 2-15 4.4 19:00:01 10° S 19:06:10 85° W 19:12:21 10° N
H-2A R/B 2.2 19:01:47 10° SSE 19:07:14 83° WSW 19:12:44 10° NNW
Ariane Rocket 3.4 19:07:51 43° NE 19:07:51 43° NE 19:12:16 10° N
Geosat 3.9 19:06:43 46° ENE 19:08:00 63° ESE 19:12:59 10° SSW
GEOS 3 Rocket 3.8 19:05:41 29° SSE 19:08:32 72° SW 19:13:56 10° NW
Cosmos 1408 3.3 19:05:26 10° NNW 19:09:00 52° W 19:11:40 16° SSW
Cosmos 1745 Rocket 4.3 19:02:48 10° NNW 19:09:04 70° W 19:15:22 10° S
Cosmos 220 Rocket 3.9 19:06:00 10° SSW 19:10:22 81° ESE 19:10:52 69° NE
Cosmos 2227 Rocket 3.4 19:05:47 10° NW 19:11:03 41° WSW 19:16:18 10° S
CSL-04 Rocket 3.9 19:11:01 10° S 19:16:33 71° WSW 19:22:05 10° NNW
Cosmos 2263 Rocket 2.4 19:11:35 10° NNW 19:17:08 49° NE 19:17:16 49° ENE
Timation 1 Rocket 4.3 19:12:03 10° NNW 19:18:07 86° WSW 19:20:34 38° SSE
Cosmos 1346 Rocket 4.4 19:21:16 10° NNW 19:24:53 34° W 19:28:30 10° SSW
Meteor 2-1 Rocket 4.3 19:19:28 10° SSW 19:24:59 74° WNW 19:30:33 10° N
SL-4 R/B 2.7 19:21:55 10° WNW 19:24:38 47° W 19:24:38 47° W
Cosmos 1825 2.9 19:22:47 10° NNW 19:26:28 52° W 19:26:28 52° W
SeaSat 1 2.5 19:26:15 55° S 19:27:17 76° WSW 19:32:16 10° NNW
CZ-4C R/B 3.2 19:21:48 10° NW 19:28:16 48° NNE 19:29:36 43° ENE
USA 305 3.8 19:25:36 10° WNW 19:29:36 43° SW 19:29:36 43° SW
NOSS 3-4 (A) 3.7 19:22:51 10° NW 19:29:43 79° NE 19:31:39 53° ESE
NOSS 3-4 (C) 3.7 19:22:57 10° NW 19:29:49 79° NE 19:31:43 53° ESE
Cosmos 1697 Rocket 2.5 19:24:17 10° SSW 19:29:54 87° ESE 19:31:25 51° NNE
Cosmos 2184 Rocket 4.5 19:26:07 10° N 19:31:04 42° NE 19:31:04 42° NE
Cosmos 1315 Rocket 3.5 19:28:41 10° SSW 19:32:11 51° W 19:32:11 51° W
USA 306 4.0 19:32:02 10° WNW 19:35:44 38° SW 19:35:44 38° SW
DEBRIS 4.1 19:20:05 10° WSW 19:36:06 64° SSE 19:36:50 59° SE
Cosmos 1709 Rocket 4.2 19:32:30 10° NNW 19:38:52 72° W 19:44:29 14° S
USA 215 3.1 19:39:00 63° E 19:40:09 79° NNE 19:46:43 10° WNW
NOSS 3-3 (A) 3.8 19:34:59 10° SW 19:40:53 84° SE 19:41:47 68° ENE
NOSS 3-3 (C) 3.8 19:35:05 10° SW 19:41:02 83° SE 19:41:53 68° ENE
SJ 16-02 3.7 19:40:10 10° N 19:41:07 15° N 19:41:07 15° N
MOS 1 Rocket 4.0 19:41:58 10° N 19:46:29 53° WNW 19:51:13 10° SSW
ATLAS 2AS CENTAUR R/B 2.6 19:44:17 10° NW 19:51:57 83° NE 19:52:43 73° ESE
Cosmos 1777 Rocket 4.3 19:46:43 10° NNW 19:51:06 63° NW 19:51:06 63° NW
Cosmos 2074 Rocket 4.3 19:46:16 10° N 19:51:03 51° NNE 19:51:03 51° NNE
Cosmos 1980 Rocket 3.7 19:46:58 10° SSW 19:49:11 25° SSW 19:49:11 25° SSW
IRS-1A Rocket 4.2 19:53:26 79° NW 19:53:26 79° NW 19:58:41 10° NNW
Meteor 2-17 Rocket 4.4 19:49:32 10° N 19:55:02 74° N 19:55:02 74° N
COSMOS 2455 4.3 19:50:48 10° NNW 19:55:08 25° NNE 19:55:08 25° NNE
Resurs 01 Rocket 4.3 20:02:03 11° N 20:02:03 11° N 20:02:17 10° N
MOS 1 4.4 20:00:46 71° NW 20:00:46 71° NW 20:05:51 10° NNW
Cosmos 2315 Rocket 4.1 19:55:00 10° SSW 20:01:11 72° WNW 20:07:25 10° N
Lacrosse 5 2.9 19:59:06 10° WNW 20:02:41 42° NW 20:02:41 42° NW
Meteor 2-3 Rocket 4.3 20:12:18 10° NNW 20:17:02 55° NW 20:17:02 55° NW
Cosmos 2278 Rocket 4.5 20:33:54 10° N 20:35:28 15° N 20:35:28 15° N
ATLAS 5 CENTAUR R/B 4.1 20:34:28 10° NW 20:36:32 20° NNW 20:36:32 20° NNW
Cosmos 2263 Rocket 4.0 20:55:48 10° NW 20:58:58 28° WNW 20:58:58 28° WNW
CZ-4C R/B 3.8 21:10:16 10° NW 21:14:46 44° WNW 21:14:46 44° WNW
ATLAS 2AS CENTAUR R/B 4.5 21:36:03 10° NW 21:40:09 25° W 21:40:09 25° W
